Location: Colorado Springs
(38.8340°N, 104.8210°W)
Time: 22:31:26
(UTC-07:00)

Vanguard 1 - All Passes

Search period start: 12 December 2017 00:00
Search period end: 22 December 2017 00:00
Orbit: 650 x 3833 km, 34.2° (Epoch: 10 December)

Date Brightness Start Highest point End Pass type
(mag) Time Alt. Az. Time Alt. Az. Time Alt. Az.
12 Dec - 05:34:46 10° S 05:47:54 18° SE 05:59:39 10° E visible
12 Dec - 07:51:28 10° SSW 08:12:13 44° SSE 08:26:38 10° E daylight
12 Dec - 10:16:22 10° WSW 10:36:38 67° SSE 10:47:56 10° E daylight
12 Dec - 12:44:13 10° W 12:59:34 68° S 13:07:36 10° ESE daylight
12 Dec - 15:11:13 10° W 15:19:57 32° SW 15:25:24 10° SSE daylight
13 Dec - 05:52:25 10° S 06:08:57 25° SE 06:23:11 10° E visible
13 Dec - 08:11:53 10° SW 08:33:31 52° SSE 08:47:59 10° E daylight
13 Dec - 10:37:55 10° WSW 10:57:58 72° S 11:08:56 10° E daylight
13 Dec - 13:05:57 10° W 13:20:37 63° SSW 13:28:21 10° ESE daylight
13 Dec - 15:33:12 10° W 15:40:24 23° SW 15:45:18 10° S daylight
14 Dec - 06:11:13 10° SSW 06:30:01 32° SE 06:45:42 10° E visible
14 Dec - 08:32:41 10° SW 08:54:50 59° SSE 09:09:13 10° E daylight
14 Dec - 10:59:36 10° WSW 11:19:16 74° S 11:29:53 10° E daylight
14 Dec - 13:27:41 10° W 13:41:32 55° SSW 13:49:00 10° SE daylight
14 Dec - 15:55:44 10° W 16:00:43 16° SW 16:04:33 10° SSW daylight
15 Dec - 04:18:49 10° SSE 04:27:17 13° SE 04:35:36 10° ESE visible
15 Dec - 06:30:43 10° SSW 06:51:08 40° SE 07:07:39 10° E visible
15 Dec - 08:53:46 10° WSW 09:16:13 65° SSE 09:30:21 10° E daylight
15 Dec - 11:21:23 10° W 11:40:33 73° S 11:50:48 10° ESE daylight
15 Dec - 13:49:27 10° W 14:02:20 46° SSW 14:09:30 10° SE daylight
16 Dec - 04:34:23 10° S 04:48:07 20° SE 05:01:24 10° E visible
16 Dec - 06:50:44 10° SW 07:12:19 47° SSE 07:29:17 10° E daylight
16 Dec - 09:15:06 10° WSW 09:37:38 70° SSE 09:51:27 10° E daylight
16 Dec - 11:43:11 10° W 12:01:47 71° SSW 12:11:41 10° ESE daylight
16 Dec - 14:11:18 10° W 14:22:57 37° SW 14:29:46 10° SSE daylight
17 Dec - 04:52:16 10° S 05:08:57 26° SE 05:24:55 10° E visible
17 Dec - 07:11:09 10° SW 07:33:35 55° SSE 07:50:42 10° E daylight
17 Dec - 09:36:38 10° WSW 09:59:04 74° S 10:12:29 10° E daylight
17 Dec - 12:05:01 10° W 12:22:55 66° SSW 12:32:28 10° ESE daylight
17 Dec - 14:33:21 10° W 14:43:23 28° SW 14:49:43 10° SSE daylight
18 Dec - 05:11:12 10° SSW 05:29:50 34° SE 05:47:27 10° E visible
18 Dec - 07:31:55 10° SW 07:54:56 62° SSE 08:12:00 10° E daylight
18 Dec - 09:58:19 10° W 10:20:31 76° S 10:33:32 10° E daylight
18 Dec - 12:26:50 10° W 12:43:55 58° SSW 12:53:08 10° SE daylight
18 Dec - 14:55:50 10° W 15:03:41 20° SW 15:09:11 10° S daylight
19 Dec - 03:19:12 10° SSE 03:27:36 13° SE 03:36:17 10° ESE visible
19 Dec - 05:30:45 10° SSW 05:50:48 41° SE 06:09:29 10° E visible
19 Dec - 07:52:58 10° WSW 08:16:22 68° SSE 08:33:14 10° E daylight
19 Dec - 10:20:05 10° W 10:41:56 75° S 10:54:30 10° ESE daylight
19 Dec - 12:48:40 10° W 13:04:45 50° SSW 13:13:39 10° SE daylight
19 Dec - 15:19:22 10° WSW 15:23:51 13° SW 15:27:30 10° SSW daylight
20 Dec - 03:35:03 10° SSE 03:48:11 20° SE 04:02:06 10° E visible
20 Dec - 05:50:48 10° SW 06:11:53 49° SSE 06:31:12 10° E visible
20 Dec - 08:14:15 10° WSW 08:37:52 72° SSE 08:54:25 10° E daylight
20 Dec - 10:41:54 10° W 11:03:16 73° SSW 11:15:26 10° ESE daylight
20 Dec - 13:10:37 10° W 13:25:26 41° SW 13:33:57 10° SSE daylight
21 Dec - 03:53:04 10° S 04:08:47 27° SE 04:25:41 10° E visible
21 Dec - 06:11:12 10° SW 06:33:05 56° SSE 06:52:43 10° E visible
21 Dec - 08:35:43 10° WSW 08:59:24 76° S 09:15:34 10° E daylight
21 Dec - 11:03:44 10° W 11:24:31 68° SSW 11:36:16 10° ESE daylight
21 Dec - 13:32:43 10° W 13:45:53 32° SW 13:53:56 10° SSE daylight
